BCS451D LFSB-LIMC

Flight info

Callsign BCS451D
Flight time 0h 43m
Altitude 21000
Route ELBEG Y715 AMRUP N491 TRA N850 DEGAD Z424 RIXUV
Aircraft A306/H-SDE3FGHIRWY/LB1

Departure

Time 2026-05-04 21:57
Airport EuroAirport Basel–Mulhouse–Freiburg (LFSB)

Arrival

Time 2026-05-04 22:41
Airport Milan Malpensa International Airport (LIMC)
Time Latitude Longitude Altitude Speed Heading
2026-05-04 21:30 47.59358 7.53109 905 ft 0 kts 12°
2026-05-04 21:31 47.59581 7.53063 907 ft 0 kts 154°
2026-05-04 21:49 47.59595 7.53054 910 ft 4 kts 159°
2026-05-04 21:49 47.59620 7.53042 907 ft 4 kts 172°
2026-05-04 21:49 47.59647 7.53040 905 ft 4 kts 189°
2026-05-04 21:50 47.59672 7.53051 907 ft 4 kts 212°
2026-05-04 21:50 47.59692 7.53076 907 ft 4 kts 235°
2026-05-04 21:50 47.59700 7.53096 908 ft 1 kts 244°
2026-05-04 21:52 47.59683 7.53049 908 ft 10 kts 242°
2026-05-04 21:52 47.59649 7.52946 904 ft 13 kts 244°
2026-05-04 21:53 47.59620 7.52810 902 ft 15 kts 282°
2026-05-04 21:53 47.59707 7.52715 900 ft 17 kts 335°
2026-05-04 21:53 47.59823 7.52634 899 ft 19 kts 333°
2026-05-04 21:53 47.59957 7.52542 897 ft 23 kts 334°
2026-05-04 21:54 47.60116 7.52433 897 ft 27 kts 336°
2026-05-04 21:54 47.60279 7.52317 904 ft 27 kts 335°
2026-05-04 21:54 47.60466 7.52189 904 ft 32 kts 336°
2026-05-04 21:54 47.60680 7.52039 904 ft 34 kts 339°
2026-05-04 21:55 47.60872 7.51906 904 ft 29 kts 335°
2026-05-04 21:55 47.61057 7.51778 904 ft 29 kts 335°
2026-05-04 21:55 47.61241 7.51649 903 ft 27 kts 337°
2026-05-04 21:55 47.61411 7.51530 903 ft 27 kts 335°
2026-05-04 21:56 47.61585 7.51410 902 ft 28 kts 334°
2026-05-04 21:56 47.61751 7.51284 903 ft 24 kts 317°
2026-05-04 21:56 47.61784 7.51086 897 ft 21 kts 250°
2026-05-04 21:56 47.61688 7.51040 892 ft 19 kts 155°
2026-05-04 21:57 47.61348 7.51278 888 ft 92 kts 155°
2026-05-04 21:57 47.60569 7.51822 896 ft 158 kts 154°
2026-05-04 21:57 47.59385 7.52650 1117 ft 210 kts 154°
2026-05-04 21:57 47.58025 7.53654 2064 ft 224 kts 152°
2026-05-04 21:58 47.56623 7.54648 3392 ft 226 kts 160°
2026-05-04 21:58 47.55021 7.54934 4385 ft 237 kts 188°
2026-05-04 21:58 47.53547 7.54014 5667 ft 235 kts 220°
2026-05-04 21:58 47.52625 7.51974 6648 ft 248 kts 248°
2026-05-04 21:59 47.52361 7.49353 7531 ft 267 kts 272°
2026-05-04 21:59 47.53066 7.46795 8664 ft 281 kts 309°
2026-05-04 21:59 47.54766 7.45336 9868 ft 290 kts 345°
2026-05-04 21:59 47.56781 7.45461 10836 ft 302 kts 17°
2026-05-04 22:00 47.58762 7.46782 11474 ft 316 kts 24°
2026-05-04 22:00 47.60849 7.47730 12577 ft 315 kts
2026-05-04 22:00 47.63065 7.47715 13401 ft 320 kts 352°
2026-05-04 22:00 47.65292 7.47725 14280 ft 326 kts 10°
2026-05-04 22:01 47.67356 7.49198 14884 ft 339 kts 41°
2026-05-04 22:01 47.68673 7.52085 15569 ft 341 kts 75°
2026-05-04 22:01 47.68846 7.55462 16812 ft 321 kts 97°
2026-05-04 22:01 47.68501 7.58709 17567 ft 325 kts 101°
2026-05-04 22:02 47.68317 7.62153 17722 ft 351 kts 90°
2026-05-04 22:02 47.68591 7.65948 17561 ft 381 kts 82°
2026-05-04 22:02 47.69060 7.69883 17805 ft 394 kts 80°
2026-05-04 22:02 47.69601 7.73947 18050 ft 407 kts 77°
2026-05-04 22:03 47.70240 7.78098 18289 ft 419 kts 84°
2026-05-04 22:03 47.70167 7.82458 18497 ft 427 kts 101°
2026-05-04 22:03 47.69193 7.86620 18813 ft 431 kts 120°
2026-05-04 22:03 47.67589 7.90384 19267 ft 432 kts 127°
2026-05-04 22:04 47.65648 7.93700 19705 ft 432 kts 139°
2026-05-04 22:04 47.63150 7.96257 20169 ft 429 kts 155°
2026-05-04 22:04 47.60437 7.97955 20683 ft 428 kts 162°
2026-05-04 22:04 47.57597 7.99265 20962 ft 427 kts 167°
2026-05-04 22:05 47.54716 8.00352 21008 ft 427 kts 168°
2026-05-04 22:05 47.52762 8.01028 21009 ft 426 kts 169°
2026-05-04 22:05 47.49913 8.01993 21006 ft 426 kts 169°
2026-05-04 22:05 47.47027 8.02986 21012 ft 426 kts 169°
2026-05-04 22:06 47.44144 8.04011 21013 ft 426 kts 168°
2026-05-04 22:06 47.41262 8.05067 21010 ft 426 kts 168°
2026-05-04 22:06 47.38391 8.06140 21008 ft 426 kts 168°
2026-05-04 22:06 47.35554 8.07210 21011 ft 425 kts 168°
2026-05-04 22:07 47.32659 8.08305 21013 ft 425 kts 168°
2026-05-04 22:07 47.29789 8.09391 21016 ft 425 kts 168°
2026-05-04 22:07 47.26932 8.10470 21015 ft 425 kts 168°
2026-05-04 22:07 47.24048 8.11555 21017 ft 426 kts 168°
2026-05-04 22:08 47.21173 8.12638 21018 ft 426 kts 168°
2026-05-04 22:08 47.18339 8.13705 21019 ft 426 kts 168°
2026-05-04 22:08 47.15466 8.14787 21017 ft 426 kts 168°
2026-05-04 22:08 47.12613 8.15859 21021 ft 426 kts 168°
2026-05-04 22:09 47.09715 8.16948 21019 ft 426 kts 168°
2026-05-04 22:09 47.06854 8.18021 21020 ft 426 kts 168°
2026-05-04 22:09 47.03970 8.19102 21023 ft 426 kts 168°
2026-05-04 22:09 47.01102 8.20176 21023 ft 426 kts 168°
2026-05-04 22:10 46.98262 8.21238 21019 ft 426 kts 168°
2026-05-04 22:10 46.95405 8.22306 21022 ft 426 kts 168°
2026-05-04 22:10 46.92509 8.23387 21019 ft 426 kts 168°
2026-05-04 22:10 46.89645 8.24454 21018 ft 426 kts 168°
2026-05-04 22:11 46.86759 8.25528 21020 ft 426 kts 168°
2026-05-04 22:11 46.83884 8.26598 21019 ft 426 kts 168°
2026-05-04 22:11 46.81010 8.27665 21018 ft 426 kts 168°
2026-05-04 22:11 46.78128 8.28735 20997 ft 426 kts 168°
2026-05-04 22:12 46.75253 8.29801 20997 ft 425 kts 168°
2026-05-04 22:12 46.72379 8.30865 21001 ft 425 kts 168°
2026-05-04 22:12 46.69551 8.31911 20996 ft 425 kts 168°
2026-05-04 22:12 46.66678 8.32975 21013 ft 426 kts 168°
2026-05-04 22:13 46.63803 8.34037 21010 ft 425 kts 168°
2026-05-04 22:13 46.60931 8.35095 21023 ft 425 kts 168°
2026-05-04 22:13 46.58055 8.36152 21031 ft 425 kts 168°
2026-05-04 22:13 46.55228 8.37192 21037 ft 425 kts 168°
2026-05-04 22:14 46.52363 8.38245 21048 ft 424 kts 168°
2026-05-04 22:14 46.49499 8.39297 21056 ft 425 kts 168°
2026-05-04 22:14 46.46660 8.40338 21074 ft 424 kts 168°
2026-05-04 22:14 46.43767 8.41397 21083 ft 424 kts 168°
2026-05-04 22:15 46.40911 8.42442 21092 ft 424 kts 168°
2026-05-04 22:15 46.38032 8.43494 21090 ft 425 kts 168°
2026-05-04 22:15 46.35168 8.44539 21089 ft 425 kts 168°
2026-05-04 22:15 46.32287 8.45590 21091 ft 428 kts 168°
2026-05-04 22:16 46.29426 8.46631 21092 ft 432 kts 168°
2026-05-04 22:16 46.26503 8.47693 21089 ft 432 kts 168°
2026-05-04 22:16 46.23583 8.48751 21092 ft 433 kts 168°
2026-05-04 22:16 46.20659 8.49813 21095 ft 433 kts 168°
2026-05-04 22:17 46.17726 8.50878 21090 ft 434 kts 168°
2026-05-04 22:17 46.14808 8.51938 21090 ft 434 kts 168°
2026-05-04 22:17 46.11868 8.53002 21086 ft 434 kts 168°
2026-05-04 22:17 46.08955 8.54055 21080 ft 429 kts 168°
2026-05-04 22:18 46.06067 8.55098 21083 ft 426 kts 168°
2026-05-04 22:18 46.03235 8.56120 21085 ft 426 kts 168°
2026-05-04 22:18 46.00357 8.57156 21077 ft 426 kts 168°
2026-05-04 22:18 45.97468 8.58196 21076 ft 426 kts 168°
2026-05-04 22:19 45.95740 8.58817 20989 ft 427 kts 168°
2026-05-04 22:19 45.92745 8.59893 20294 ft 424 kts 168°
2026-05-04 22:19 45.90805 8.60646 19776 ft 424 kts 164°
2026-05-04 22:19 45.88192 8.62558 19105 ft 425 kts 147°
2026-05-04 22:20 45.85886 8.65183 18553 ft 420 kts 142°
2026-05-04 22:20 45.83683 8.67834 17968 ft 414 kts 142°
2026-05-04 22:20 45.81460 8.70486 17412 ft 407 kts 143°
2026-05-04 22:20 45.79290 8.73043 16894 ft 401 kts 143°
2026-05-04 22:21 45.77170 8.75508 16374 ft 396 kts 144°
2026-05-04 22:21 45.74875 8.77625 15834 ft 389 kts 153°
2026-05-04 22:21 45.72500 8.79478 15329 ft 385 kts 154°
2026-05-04 22:21 45.70149 8.81271 14806 ft 382 kts 154°
2026-05-04 22:22 45.67812 8.83055 14289 ft 378 kts 154°
2026-05-04 22:22 45.65499 8.84823 13758 ft 376 kts 154°
2026-05-04 22:22 45.63206 8.86578 13200 ft 372 kts 154°
2026-05-04 22:22 45.60849 8.87912 12808 ft 360 kts 167°
2026-05-04 22:23 45.58426 8.88646 12633 ft 345 kts 171°
2026-05-04 22:23 45.56107 8.89268 12363 ft 335 kts 171°
2026-05-04 22:23 45.53864 8.89864 12071 ft 326 kts 171°
2026-05-04 22:23 45.51646 8.90457 11791 ft 318 kts 171°
2026-05-04 22:24 45.49479 8.90836 11508 ft 309 kts 179°
2026-05-04 22:24 45.47359 8.90534 11092 ft 306 kts 194°
2026-05-04 22:24 45.45433 8.89366 10646 ft 305 kts 212°
2026-05-04 22:24 45.43891 8.87312 10243 ft 306 kts 232°
2026-05-04 22:25 45.42990 8.84613 10084 ft 299 kts 253°
2026-05-04 22:25 45.42815 8.81720 10061 ft 289 kts 272°
2026-05-04 22:25 45.43295 8.79023 10058 ft 278 kts 292°
2026-05-04 22:25 45.44477 8.76862 10076 ft 278 kts 319°
2026-05-04 22:26 45.46098 8.75244 10088 ft 289 kts 325°
2026-05-04 22:26 45.47801 8.73694 10077 ft 291 kts 326°
2026-05-04 22:26 45.49515 8.72143 10029 ft 292 kts 326°
2026-05-04 22:26 45.51204 8.70618 9902 ft 291 kts 326°
2026-05-04 22:27 45.52919 8.69073 9766 ft 291 kts 326°
2026-05-04 22:27 45.54627 8.67537 9527 ft 290 kts 326°
2026-05-04 22:27 45.56336 8.66001 9262 ft 288 kts 326°
2026-05-04 22:27 45.58020 8.64488 9004 ft 284 kts 326°
2026-05-04 22:28 45.59679 8.62998 8736 ft 279 kts 326°
2026-05-04 22:28 45.61305 8.61536 8468 ft 275 kts 326°
2026-05-04 22:28 45.62884 8.60033 8201 ft 269 kts 315°
2026-05-04 22:28 45.63910 8.57872 8001 ft 257 kts 285°
2026-05-04 22:29 45.64047 8.55415 8002 ft 252 kts 256°
2026-05-04 22:29 45.63313 8.53141 8001 ft 255 kts 228°
2026-05-04 22:29 45.61918 8.51671 7996 ft 254 kts 200°
2026-05-04 22:29 45.60185 8.51348 7991 ft 254 kts 172°
2026-05-04 22:30 45.58558 8.52277 7990 ft 255 kts 143°
2026-05-04 22:30 45.57441 8.54235 7992 ft 259 kts 115°
2026-05-04 22:30 45.57115 8.56760 7994 ft 263 kts 87°
2026-05-04 22:30 45.57382 8.59355 7995 ft 265 kts 88°
2026-05-04 22:31 45.57101 8.61906 7994 ft 260 kts 115°
2026-05-04 22:31 45.56137 8.64053 7991 ft 257 kts 136°
2026-05-04 22:31 45.54658 8.65386 7992 ft 255 kts 162°
2026-05-04 22:31 45.52907 8.65645 7998 ft 254 kts 183°
2026-05-04 22:32 45.51134 8.65578 7911 ft 253 kts 179°
2026-05-04 22:32 45.49389 8.65665 7673 ft 248 kts 177°
2026-05-04 22:32 45.47683 8.65772 7442 ft 243 kts 177°
2026-05-04 22:32 45.46004 8.65876 7160 ft 241 kts 177°
2026-05-04 22:33 45.44343 8.65974 6882 ft 240 kts 177°
2026-05-04 22:33 45.42702 8.66067 6587 ft 238 kts 177°
2026-05-04 22:33 45.41022 8.66157 6269 ft 238 kts 177°
2026-05-04 22:33 45.39369 8.66244 5908 ft 240 kts 177°
2026-05-04 22:34 45.37680 8.66334 5521 ft 242 kts 177°
2026-05-04 22:34 45.36051 8.66840 5134 ft 243 kts 149°
2026-05-04 22:34 45.34933 8.68589 4750 ft 243 kts 112°
2026-05-04 22:34 45.34712 8.70954 4364 ft 245 kts 83°
2026-05-04 22:35 45.35295 8.73177 4107 ft 243 kts 56°
2026-05-04 22:35 45.36523 8.74702 4089 ft 227 kts 28°
2026-05-04 22:35 45.37917 8.75591 4092 ft 216 kts 22°
2026-05-04 22:35 45.39321 8.76373 4082 ft 216 kts 21°
2026-05-04 22:36 45.40694 8.77142 4061 ft 204 kts 22°
2026-05-04 22:36 45.41942 8.77862 4080 ft 192 kts 22°
2026-05-04 22:36 45.43202 8.78454 4073 ft 189 kts
2026-05-04 22:36 45.44516 8.78455 4062 ft 190 kts 352°
2026-05-04 22:37 45.45807 8.78118 3884 ft 188 kts 348°
2026-05-04 22:37 45.47066 8.77760 3624 ft 178 kts 348°
2026-05-04 22:37 45.48251 8.77439 3382 ft 169 kts 348°
2026-05-04 22:37 45.49403 8.77122 3139 ft 169 kts 348°
2026-05-04 22:38 45.50566 8.76801 2907 ft 170 kts 348°
2026-05-04 22:38 45.51729 8.76480 2681 ft 170 kts 348°
2026-05-04 22:38 45.52885 8.76160 2456 ft 169 kts 347°
2026-05-04 22:38 45.54009 8.75850 2215 ft 157 kts 347°
2026-05-04 22:39 45.55042 8.75564 2029 ft 148 kts 347°
2026-05-04 22:39 45.56066 8.75280 1835 ft 153 kts 347°
2026-05-04 22:39 45.57125 8.74978 1645 ft 159 kts 346°
2026-05-04 22:39 45.58214 8.74656 1427 ft 157 kts 336°
2026-05-04 22:40 45.59282 8.74317 1250 ft 159 kts 349°
2026-05-04 22:40 45.60373 8.74074 1017 ft 158 kts 349°
2026-05-04 22:40 45.61457 8.73768 832 ft 157 kts 344°
2026-05-04 22:40 45.62518 8.73481 771 ft 150 kts 348°
2026-05-04 22:41 45.63420 8.73234 761 ft 108 kts 350°
2026-05-04 22:41 45.63990 8.73079 766 ft 61 kts 351°
2026-05-04 22:41 45.64285 8.72927 765 ft 32 kts 304°
2026-05-04 22:41 45.64359 8.72789 765 ft 16 kts 313°
2026-05-04 22:42 45.64408 8.72688 765 ft 8 kts 325°
2026-05-04 22:42 45.64464 8.72620 762 ft 14 kts 297°
2026-05-04 22:42 45.64448 8.72481 759 ft 13 kts 230°
2026-05-04 22:42 45.64434 8.72397 765 ft 10 kts 270°
2026-05-04 22:43 45.64426 8.72268 765 ft 16 kts 266°
2026-05-04 22:43 45.64468 8.72108 763 ft 19 kts 295°
2026-05-04 22:43 45.64496 8.71913 762 ft 21 kts 257°
2026-05-04 22:43 45.64456 8.71686 758 ft 24 kts 231°
2026-05-04 22:44 45.64296 8.71688 764 ft 25 kts 172°
2026-05-04 22:44 45.64109 8.71735 759 ft 28 kts 158°
2026-05-04 22:44 45.63910 8.71804 759 ft 32 kts 169°
2026-05-04 22:44 45.63685 8.71853 762 ft 34 kts 168°
2026-05-04 22:45 45.63441 8.71926 762 ft 37 kts 169°
2026-05-04 22:45 45.62925 8.72063 762 ft 39 kts 169°
2026-05-04 22:45 45.62649 8.72140 761 ft 41 kts 165°
2026-05-04 22:46 45.62366 8.72225 761 ft 41 kts 170°
2026-05-04 22:46 45.62221 8.72202 765 ft 13 kts 244°
2026-05-04 22:46 45.62191 8.72058 761 ft 18 kts 258°
2026-05-04 22:46 45.62112 8.71988 761 ft 13 kts 175°
2026-05-04 22:47 45.62006 8.72010 763 ft 18 kts 169°
2026-05-04 22:47 45.61870 8.72051 764 ft 22 kts 168°
2026-05-04 22:47 45.61735 8.72089 764 ft 14 kts 172°
2026-05-04 22:47 45.61627 8.72115 766 ft 18 kts 169°
2026-05-04 22:48 45.61520 8.72144 766 ft 15 kts 169°
2026-05-04 22:48 45.61440 8.72140 766 ft 9 kts 219°
2026-05-04 22:48 45.61423 8.72118 766 ft 1 kts 216°
2026-05-04 22:48 45.61398 8.72103 761 ft 4 kts 203°
2026-05-04 22:49 45.61388 8.72089 765 ft 2 kts 211°
2026-05-04 22:49 45.61372 8.72080 760 ft 3 kts 193°
2026-05-04 22:49 45.61360 8.72066 764 ft 2 kts 237°
2026-05-04 22:49 45.61357 8.72046 766 ft 3 kts 259°
2026-05-04 22:50 45.61354 8.72021 766 ft 0 kts 258°
2026-05-04 22:50 45.61354 8.72022 766 ft 0 kts 258°